| time (UTC) | temp F | wind direction | speed MPH | gust MPH | rain 1hr in | rain 24hr in | rain mn in | humidity % | barometer mb |
| 20260508074347 | 44 | 102 | 3.0 | 0.0 | 0.00 | 0.00 | 0.00 | 76 | 1016.2 |
| 20260508073329 | 43 | 94 | 3.0 | 0.0 | 0.00 | 0.00 | 0.00 | 75 | 1016.2 |
| 20260508072333 | 43 | 105 | 3.0 | 0.0 | 0.00 | 0.00 | 0.00 | 75 | 1016.1 |
| 20260508071341 | 43 | 106 | 2.0 | 0.0 | 0.00 | 0.00 | 0.00 | 74 | 1016.0 |
| 20260508070328 | 44 | 103 | 2.0 | 0.0 | 0.00 | 0.00 | 0.00 | 75 | 1016.0 |
| 20260508065352 | 44 | 176 | 6.0 | 0.0 | 0.00 | 0.00 | 0.00 | 75 | 1016.0 |
| 20260508064335 | 43 | 186 | 6.0 | 0.0 | 0.00 | 0.00 | 0.00 | 74 | 1015.6 |
| 20260508063340 | 43 | 195 | 3.0 | 0.0 | 0.00 | 0.00 | 0.00 | 72 | 1015.5 |
| 20260508062328 | 44 | 160 | 3.0 | 0.0 | 0.00 | 0.00 | 0.00 | 72 | 1015.9 |
| 20260508061332 | 44 | 152 | 1.0 | 0.0 | 0.00 | 0.00 | 0.00 | 70 | 1016.0 |
| 20260508060335 | 45 | 130 | 1.0 | 0.0 | 0.00 | 0.00 | 0.00 | 69 | 1016.0 |
| 20260508055340 | 46 | 116 | 1.0 | 0.0 | 0.00 | 0.00 | 0.00 | 68 | 1015.6 |
| 20260508054328 | 46 | 136 | 2.0 | 0.0 | 0.00 | 0.00 | 0.00 | 67 | 1015.6 |
| 20260508053332 | 47 | 83 | 1.0 | 0.0 | 0.00 | 0.00 | 0.00 | 67 | 1015.6 |
| 20260508052339 | 47 | 200 | 0.0 | 0.0 | 0.00 | 0.00 | 0.00 | 67 | 1015.5 |
| 20260508051327 | 48 | 200 | 0.0 | 0.0 | 0.00 | 0.00 | 0.00 | 66 | 1015.9 |
| 20260508050331 | 48 | 200 | 0.0 | 0.0 | 0.00 | 0.00 | 0.00 | 67 | 1016.0 |
| 20260508045355 | 47 | 200 | 2.0 | 0.0 | 0.00 | 0.00 | 0.00 | 67 | 1015.5 |
| 20260508044338 | 48 | 205 | 4.0 | 0.0 | 0.00 | 0.00 | 0.00 | 65 | 1015.6 |
| 20260508043325 | 48 | 270 | 3.0 | 0.0 | 0.00 | 0.00 | 0.00 | 65 | 1015.4 |
| 20260508042334 | 49 | 326 | 2.0 | 0.0 | 0.00 | 0.00 | 0.00 | 63 | 1016.0 |
| 20260508041358 | 50 | 239 | 4.0 | 0.0 | 0.00 | 0.00 | 0.00 | 61 | 1015.9 |
| 20260508035405 | 50 | 176 | 3.0 | 0.0 | 0.00 | 0.00 | 0.00 | 60 | 1015.2 |
| 20260508034332 | 51 | 228 | 1.0 | 0.0 | 0.00 | 0.00 | 0.00 | 57 | 1014.8 |
| 20260508033356 | 53 | 330 | 3.0 | 0.0 | 0.00 | 0.00 | 0.00 | 55 | 1015.2 |
| 20260508032359 | 56 | 181 | 4.0 | 0.0 | 0.00 | 0.00 | 0.00 | 52 | 1014.9 |
| 20260508031341 | 59 | 32 | 2.0 | 0.0 | 0.00 | 0.00 | 0.00 | 48 | 1014.9 |
| 20260508030329 | 59 | 30 | 3.0 | 0.0 | 0.00 | 0.00 | 0.00 | 48 | 1014.8 |
| 20260508025337 | 59 | 30 | 1.0 | 0.0 | 0.00 | 0.00 | 0.00 | 47 | 1014.4 |
| 20260508024401 | 60 | 27 | 2.0 | 0.0 | 0.00 | 0.00 | 0.00 | 47 | 1014.3 |
| 20260508023344 | 60 | 36 | 4.0 | 0.0 | 0.00 | 0.00 | 0.00 | 47 | 1014.1 |
| 20260508022328 | 61 | 90 | 1.0 | 0.0 | 0.00 | 0.00 | 0.00 | 46 | 1014.7 |
| 20260508021352 | 61 | 51 | 2.0 | 0.0 | 0.00 | 0.00 | 0.00 | 48 | 1014.5 |
| 20260508020338 | 62 | 59 | 1.0 | 0.0 | 0.00 | 0.00 | 0.00 | 47 | 1014.4 |
| 20260508015342 | 62 | 18 | 4.0 | 0.0 | 0.00 | 0.00 | 0.00 | 48 | 1013.8 |
| 20260508014326 | 62 | 37 | 4.0 | 0.0 | 0.00 | 0.00 | 0.00 | 47 | 1013.7 |
| 20260508013331 | 62 | 24 | 10.0 | 0.0 | 0.00 | 0.00 | 0.00 | 47 | 1013.7 |
| 20260508012339 | 62 | 34 | 11.0 | 0.0 | 0.00 | 0.00 | 0.00 | 48 | 1013.4 |
| 20260508011404 | 61 | 3 | 10.0 | 0.0 | 0.00 | 0.00 | 0.00 | 48 | 1013.7 |
| 20260508010327 | 62 | 46 | 15.0 | 0.0 | 0.00 | 0.00 | 0.00 | 49 | 1014.6 |
| 20260508005331 | 62 | 39 | 18.0 | 0.0 | 0.00 | 0.00 | 0.00 | 49 | 1013.8 |
| 20260508004343 | 63 | 36 | 18.0 | 0.0 | 0.00 | 0.00 | 0.00 | 48 | 1013.4 |
| 20260508003347 | 62 | 19 | 17.0 | 0.0 | 0.00 | 0.00 | 0.00 | 48 | 1013.7 |
| 20260508002330 | 63 | 20 | 19.0 | 0.0 | 0.00 | 0.00 | 0.00 | 48 | 1013.3 |
| 20260508001334 | 64 | 27 | 21.0 | 0.0 | 0.00 | 0.00 | 0.00 | 46 | 1013.1 |
| 20260508000327 | 67 | 13 | 8.0 | 0.0 | 0.00 | 0.00 | 0.00 | 42 | 1013.4 |
| 20260507235328 | 66 | 352 | 8.0 | 0.0 | 0.00 | 0.00 | 0.00 | 42 | 1013.0 |
| 20260507234331 | 67 | 2 | 10.0 | 0.0 | 0.00 | 0.00 | 0.00 | 40 | 1012.9 |
| 20260507233335 | 68 | 341 | 8.0 | 0.0 | 0.00 | 0.00 | 0.00 | 39 | 1013.0 |
| 20260507232359 | 68 | 15 | 13.0 | 0.0 | 0.00 | 0.00 | 0.00 | 38 | 1013.0 |
| 20260507231402 | 68 | 11 | 10.0 | 0.0 | 0.00 | 0.00 | 0.00 | 39 | 1012.9 |
| 20260507230349 | 69 | 346 | 11.0 | 0.0 | 0.00 | 0.00 | 0.00 | 37 | 1013.0 |
| 20260507225332 | 69 | 11 | 8.0 | 0.0 | 0.00 | 0.00 | 0.00 | 38 | 1012.4 |
| 20260507224336 | 69 | 4 | 7.0 | 0.0 | 0.00 | 0.00 | 0.00 | 36 | 1012.3 |
| 20260507223341 | 69 | 8 | 10.0 | 0.0 | 0.00 | 0.00 | 0.00 | 37 | 1012.4 |
| 20260507222329 | 69 | 333 | 10.0 | 0.0 | 0.00 | 0.00 | 0.00 | 37 | 1012.5 |
| 20260507221334 | 68 | 26 | 6.0 | 0.0 | 0.00 | 0.00 | 0.00 | 37 | 1012.3 |
| 20260507220339 | 69 | 16 | 9.0 | 0.0 | 0.00 | 0.00 | 0.00 | 36 | 1012.4 |
| 20260507215403 | 69 | 20 | 7.0 | 0.0 | 0.00 | 0.00 | 0.00 | 37 | 1012.6 |
| 20260507214406 | 69 | 30 | 9.0 | 0.0 | 0.00 | 0.00 | 0.00 | 37 | 1012.7 |
| 20260507213332 | 68 | 352 | 8.0 | 0.0 | 0.00 | 0.00 | 0.00 | 37 | 1012.7 |
| 20260507212356 | 68 | 347 | 12.0 | 0.0 | 0.00 | 0.00 | 0.00 | 38 | 1012.8 |
| 20260507211339 | 68 | 334 | 12.0 | 0.0 | 0.00 | 0.00 | 0.00 | 39 | 1012.8 |
| 20260507210327 | 68 | 7 | 10.0 | 0.0 | 0.00 | 0.00 | 0.00 | 39 | 1013.0 |
| 20260507205336 | 68 | 359 | 13.0 | 0.0 | 0.00 | 0.00 | 0.00 | 39 | 1013.6 |
| 20260507204342 | 68 | 55 | 15.0 | 0.0 | 0.00 | 0.00 | 0.00 | 41 | 1013.6 |
| 20260507203326 | 68 | 8 | 13.0 | 0.0 | 0.00 | 0.00 | 0.00 | 42 | 1013.5 |
| 20260507202334 | 68 | 42 | 16.0 | 0.0 | 0.00 | 0.00 | 0.00 | 43 | 1013.5 |
| 20260507201322 | 68 | 338 | 12.0 | 0.0 | 0.00 | 0.00 | 0.00 | 44 | 1013.3 |
| 20260507200329 | 67 | 44 | 10.0 | 0.0 | 0.00 | 0.00 | 0.00 | 40 | 1012.0 |
| 20260507195332 | 67 | 12 | 9.0 | 0.0 | 0.00 | 0.00 | 0.00 | 40 | 1013.0 |
| 20260507194336 | 67 | 26 | 8.0 | 0.0 | 0.00 | 0.00 | 0.00 | 40 | 1013.0 |
| 20260507193401 | 66 | 3 | 10.0 | 0.0 | 0.00 | 0.00 | 0.00 | 40 | 1013.1 |
| 20260507192328 | 66 | 348 | 8.0 | 0.0 | 0.00 | 0.00 | 0.00 | 40 | 1013.1 |
| 20260507191354 | 66 | 354 | 9.0 | 0.0 | 0.00 | 0.00 | 0.00 | 40 | 1013.1 |
| 20260507190341 | 66 | 19 | 7.0 | 0.0 | 0.00 | 0.00 | 0.00 | 41 | 1013.1 |
| 20260507185328 | 66 | 17 | 9.0 | 0.0 | 0.00 | 0.00 | 0.00 | 40 | 1013.5 |
| 20260507184357 | 66 | 20 | 9.0 | 0.0 | 0.00 | 0.00 | 0.00 | 41 | 1013.6 |
| 20260507183326 | 67 | 302 | 9.0 | 0.0 | 0.00 | 0.00 | 0.00 | 40 | 1013.5 |
| 20260507182349 | 66 | 357 | 9.0 | 0.0 | 0.00 | 0.00 | 0.00 | 41 | 1013.9 |
| 20260507181332 | 66 | 326 | 9.0 | 0.0 | 0.00 | 0.00 | 0.00 | 41 | 1014.0 |
| 20260507180357 | 66 | 359 | 8.0 | 0.0 | 0.00 | 0.00 | 0.00 | 41 | 1014.0 |
| 20260507175343 | 65 | 334 | 8.0 | 0.0 | 0.00 | 0.00 | 0.00 | 44 | 1013.6 |
| 20260507174348 | 65 | 340 | 8.0 | 0.0 | 0.00 | 0.00 | 0.00 | 43 | 1013.6 |
| 20260507173357 | 65 | 336 | 11.0 | 0.0 | 0.00 | 0.00 | 0.00 | 44 | 1013.8 |
| 20260507172343 | 66 | 7 | 8.0 | 0.0 | 0.00 | 0.00 | 0.00 | 44 | 1014.2 |
| 20260507171332 | 66 | 300 | 8.0 | 0.0 | 0.00 | 0.00 | 0.00 | 43 | 1014.3 |
| 20260507170336 | 65 | 316 | 6.0 | 0.0 | 0.00 | 0.00 | 0.00 | 44 | 1013.6 |
| 20260507165340 | 65 | 5 | 5.0 | 0.0 | 0.00 | 0.00 | 0.00 | 45 | 1014.2 |
| 20260507164344 | 65 | 346 | 6.0 | 0.0 | 0.00 | 0.00 | 0.00 | 45 | 1014.2 |
| 20260507163332 | 65 | 344 | 5.0 | 0.0 | 0.00 | 0.00 | 0.00 | 45 | 1014.1 |
| 20260507162336 | 65 | 273 | 5.0 | 0.0 | 0.00 | 0.00 | 0.00 | 45 | 1014.3 |
| 20260507161341 | 64 | 241 | 3.0 | 0.0 | 0.00 | 0.00 | 0.00 | 47 | 1013.7 |
| 20260507160325 | 63 | 181 | 3.0 | 0.0 | 0.00 | 0.00 | 0.00 | 50 | 1013.6 |
| 20260507155336 | 62 | 172 | 2.0 | 0.0 | 0.00 | 0.00 | 0.00 | 52 | 1014.0 |
| 20260507154341 | 61 | 146 | 5.0 | 0.0 | 0.00 | 0.00 | 0.00 | 53 | 1014.4 |
| 20260507153325 | 62 | 41 | 2.0 | 0.0 | 0.00 | 0.00 | 0.00 | 51 | 1014.3 |
| 20260507152329 | 62 | 78 | 2.0 | 0.0 | 0.00 | 0.00 | 0.00 | 51 | 1014.3 |
| 20260507151338 | 60 | 169 | 4.0 | 0.0 | 0.00 | 0.00 | 0.00 | 54 | 1014.6 |
| 20260507150342 | 60 | 270 | 2.0 | 0.0 | 0.00 | 0.00 | 0.00 | 55 | 1014.1 |
| 20260507145327 | 59 | 157 | 2.0 | 0.0 | 0.00 | 0.00 | 0.00 | 56 | 1014.7 |
| 20260507144329 | 59 | 162 | 3.0 | 0.0 | 0.00 | 0.00 | 0.00 | 56 | 1014.6 |
| 20260507143333 | 58 | 223 | 4.0 | 0.0 | 0.00 | 0.00 | 0.00 | 59 | 1014.0 |
| 20260507142345 | 57 | 211 | 3.0 | 0.0 | 0.00 | 0.00 | 0.00 | 60 | 1014.1 |
| 20260507141331 | 56 | 236 | 3.0 | 0.0 | 0.00 | 0.00 | 0.00 | 62 | 1014.1 |
| 20260507140336 | 56 | 162 | 4.0 | 0.0 | 0.00 | 0.00 | 0.00 | 64 | 1013.9 |
| 20260507135340 | 55 | 192 | 4.0 | 0.0 | 0.00 | 0.00 | 0.00 | 65 | 1014.4 |
| 20260507134329 | 54 | 206 | 3.0 | 0.0 | 0.00 | 0.00 | 0.00 | 66 | 1014.6 |
| 20260507133333 | 54 | 165 | 4.0 | 0.0 | 0.00 | 0.00 | 0.00 | 68 | 1014.4 |
| 20260507132338 | 53 | 217 | 5.0 | 0.0 | 0.00 | 0.00 | 0.00 | 70 | 1014.5 |
| 20260507131342 | 51 | 199 | 5.0 | 0.0 | 0.00 | 0.00 | 0.00 | 71 | 1013.8 |
| 20260507130330 | 49 | 181 | 7.0 | 0.0 | 0.00 | 0.00 | 0.00 | 70 | 1014.1 |
| 20260507125335 | 49 | 181 | 6.0 | 0.0 | 0.00 | 0.00 | 0.00 | 68 | 1013.8 |
| 20260507124339 | 50 | 176 | 6.0 | 0.0 | 0.00 | 0.00 | 0.00 | 66 | 1014.4 |
| 20260507123403 | 51 | 132 | 4.0 | 0.0 | 0.00 | 0.00 | 0.00 | 64 | 1014.4 |
| 20260507122330 | 52 | 45 | 3.0 | 0.0 | 0.00 | 0.00 | 0.00 | 65 | 1013.8 |
| 20260507121333 | 52 | 347 | 5.0 | 0.0 | 0.00 | 0.00 | 0.00 | 66 | 1013.8 |
| 20260507120338 | 52 | 163 | 4.0 | 0.0 | 0.00 | 0.00 | 0.00 | 66 | 1013.8 |
| 20260507115353 | 52 | 140 | 6.0 | 0.0 | 0.00 | 0.00 | 0.00 | 66 | 1013.8 |
| 20260507114337 | 53 | 38 | 11.0 | 0.0 | 0.00 | 0.00 | 0.00 | 66 | 1013.5 |
| 20260507113345 | 53 | 33 | 10.0 | 0.0 | 0.00 | 0.00 | 0.00 | 65 | 1013.7 |
| 20260507112348 | 54 | 55 | 12.0 | 0.0 | 0.00 | 0.00 | 0.00 | 65 | 1013.6 |
| 20260507111330 | 52 | 339 | 5.0 | 0.0 | 0.00 | 0.00 | 0.00 | 68 | 1013.9 |
| 20260507110337 | 50 | 31 | 4.0 | 0.0 | 0.00 | 0.00 | 0.00 | 68 | 1014.4 |
| 20260507105329 | 50 | 65 | 3.0 | 0.0 | 0.00 | 0.00 | 0.00 | 67 | 1014.0 |
| 20260507104356 | 50 | 124 | 3.0 | 0.0 | 0.00 | 0.00 | 0.00 | 67 | 1013.7 |
| 20260507103338 | 50 | 72 | 3.0 | 0.0 | 0.00 | 0.00 | 0.00 | 66 | 1013.6 |
| 20260507102345 | 50 | 69 | 3.0 | 0.0 | 0.00 | 0.00 | 0.00 | 66 | 1013.6 |
| 20260507101332 | 49 | 43 | 1.0 | 0.0 | 0.00 | 0.00 | 0.00 | 65 | 1013.5 |
| 20260507100336 | 50 | 43 | 3.0 | 0.0 | 0.00 | 0.00 | 0.00 | 64 | 1013.6 |
| 20260507095341 | 50 | 59 | 2.0 | 0.0 | 0.00 | 0.00 | 0.00 | 63 | 1013.2 |
| 20260507094329 | 51 | 163 | 3.0 | 0.0 | 0.00 | 0.00 | 0.00 | 62 | 1013.2 |
| 20260507093356 | 52 | 169 | 5.0 | 0.0 | 0.00 | 0.00 | 0.00 | 62 | 1012.9 |
| 20260507092342 | 51 | 176 | 7.0 | 0.0 | 0.00 | 0.00 | 0.00 | 62 | 1013.3 |
| 20260507091327 | 51 | 193 | 4.0 | 0.0 | 0.00 | 0.00 | 0.00 | 62 | 1013.1 |
| 20260507090331 | 52 | 198 | 5.0 | 0.0 | 0.00 | 0.00 | 0.00 | 60 | 1012.8 |
| 20260507085334 | 53 | 191 | 5.0 | 0.0 | 0.00 | 0.00 | 0.00 | 60 | 1012.6 |
| 20260507084341 | 53 | 192 | 5.0 | 0.0 | 0.00 | 0.00 | 0.00 | 59 | 1012.5 |
| 20260507083325 | 54 | 196 | 3.0 | 0.0 | 0.00 | 0.00 | 0.00 | 57 | 1012.5 |
| 20260507082330 | 55 | 146 | 2.0 | 0.0 | 0.00 | 0.00 | 0.00 | 55 | 1013.1 |
| 20260507081334 | 58 | 28 | 2.0 | 0.0 | 0.00 | 0.00 | 0.00 | 52 | 1012.8 |
| 20260507080342 | 58 | 28 | 2.0 | 0.0 | 0.00 | 0.00 | 0.00 | 51 | 1012.9 |
| 20260507075405 | 58 | 96 | 1.0 | 0.0 | 0.00 | 0.00 | 0.00 | 51 | 1012.6 |